Temp
-3 -4 -4 -4 -3 -4 -4 -4 -4 -4 -4 -4 -5 -5 -5 -5 -5 -5 -5 -6 -6 -6 -6 -6 -6 -7 -7 -6 -6 -6 -6 -6 -6 -6 -6 -6 -7 -7 -6 -6 -7 -6
-3 -4 -4 -4 -4 -4 -4 -4 -4 -4 -4 -4 -4 -5 -5 -5 -5 -5 -5 -5 -6 -6 -6 -6 -6 -6 -6 -6 -6 -6 -6 -6 -6 -6 -6 -6 -7 -7 -7 -7 -7 -7
-3 -3 -4 -4 -4 -4 -3 -4 -4 -4 -4 -4 -4 -4 -4 -5 -5 -5 -5 -5 -5 -6 -6 -6 -6 -6 -6 -6 -6 -6 -6 -6 -7 -7 -7 -6 -7 -7 -7 -7 -7 -7
-3 -3 -4 -4 -4 -4 -4 -4 -4 -4 -4 -4 -4 -4 -4 -4 -5 -5 -5 -5 -5 -5 -6 -6 -6 -6 -6 -6 -6 -6 -6 -7 -7 -7 -7 -7 -7 -7 -7 -7 -7 -7
-3 -3 -3 -4 -4 -4 -4 -4 -4 -4 -4 -4 -4 -4 -4 -4 -5 -5 -5 -5 -5 -5 -5 -6 -6 -6 -6 -6 -6 -7 -6 -7 -7 -7 -7 -7 -7 -7 -7 -7 -7 -7
-4 -4 -4 -4 -4 -4 -4 -4 -4 -4 -4 -4 -4 -4 -4 -4 -4 -5 -5 -5 -5 -5 -5 -6 -6 -6 -6 -6 -7 -7 -7 -7 -7 -7 -7 -7 -7 -7 -7 -7 -7 -7
-4 -4 -4 -4 -4 -4 -4 -4 -4 -4 -4 -4 -4 -4 -4 -4 -4 -4 -5 -5 -5 -5 -5 -5 -6 -6 -6 -6 -6 -7 -7 -7 -7 -7 -7 -7 -7 -7 -7 -7 -7 -7
-4 -4 -4 -4 -4 -4 -4 -4 -4 -4 -4 -4 -4 -4 -4 -4 -4 -4 -5 -5 -5 -5 -5 -5 -5 -6 -6 -6 -6 -7 -7 -7 -7 -7 -7 -7 -7 -7 -7 -7 -7 -7
-4 -4 -4 -4 -4 -4 -4 -4 -4 -4 -4 -4 -4 -4 -4 -4 -4 -4 -5 -5 -5 -5 -5 -5 -5 -6 -6 -6 -6 -7 -7 -7 -7 -7 -7 -7 -7 -7 -7 -7 -7 -7
-4 -4 -4 -4 -4 -4 -4 -4 -4 -4 -4 -4 -4 -4 -4 -4 -4 -5 -5 -5 -5 -5 -5 -5 -5 -6 -6 -6 -6 -7 -7 -7 -7 -7 -7 -7 -7 -7 -8 -8 -8 -8
-4 -4 -4 -4 -4 -4 -4 -4 -4 -4 -4 -4 -4 -4 -5 -5 -5 -5 -5 -5 -5 -5 -5 -5 -6 -6 -6 -6 -6 -7 -7 -7 -7 -7 -7 -7 -7 -7 -7 -8 -8 -8
-4 -4 -4 -4 -4 -4 -5 -5 -4 -4 -4 -4 -5 -5 -5 -5 -5 -5 -5 -5 -5 -5 -5 -6 -6 -6 -6 -6 -6 -7 -7 -7 -7 -7 -7 -7 -7 -7 -7 -7 -8 -8
-4 -4 -4 -4 -5 -5 -5 -5 -4 -4 -4 -5 -5 -5 -5 -5 -5 -5 -5 -5 -5 -5 -6 -6 -6 -6 -6 -6 -7 -7 -7 -7 -7 -7 -7 -7 -7 -7 -7 -7 -8 -8
-4 -4 -4 -5 -5 -5 -5 -5 -5 -4 -4 -5 -5 -5 -5 -4 -5 -5 -5 -5 -5 -5 -5 -6 -6 -6 -6 -7 -7 -7 -7 -7 -8 -7 -7 -7 -7 -7 -7 -7 -7 -8
-4 -4 -4 -5 -5 -5 -5 -5 -5 -5 -4 -4 -5 -5 -5 -4 -4 -4 -4 -5 -5 -5 -5 -5 -5 -6 -6 -7 -7 -7 -7 -7 -7 -7 -7 -7 -7 -7 -7 -7 -7 -7
-4 -4 -4 -4 -5 -5 -5 -5 -5 -5 -4 -4 -5 -5 -5 -4 -4 -4 -4 -5 -5 -5 -5 -5 -5 -6 -6 -6 -7 -7 -7 -7 -7 -7 -7 -7 -7 -7 -7 -7 -7 -7
-5 -4 -4 -4 -5 -5 -5 -5 -5 -5 -5 -5 -5 -5 -5 -5 -4 -4 -4 -4 -4 -4 -4 -5 -5 -6 -6 -6 -6 -6 -6 -6 -6 -7 -7 -7 -7 -7 -7 -7 -7 -7
-5 -5 -5 -5 -5 -5 -5 -5 -5 -5 -5 -5 -5 -5 -5 -5 -4 -4 -4 -4 -4 -4 -5 -5 -5 -6 -6 -6 -6 -6 -6 -6 -6 -7 -7 -7 -7 -7 -7 -7 -7 -7
-5 -5 -5 -5 -5 -5 -5 -5 -5 -5 -5 -5 -5 -5 -5 -5 -5 -5 -5 -5 -4 -5 -5 -5 -5 -5 -6 -6 -6 -6 -7 -7 -6 -6 -6 -7 -7 -7 -7 -7 -7 -7
-5 -5 -6 -5 -5 -5 -5 -5 -5 -5 -5 -5 -5 -5 -5 -5 -5 -5 -5 -5 -5 -5 -5 -5 -5 -6 -6 -6 -6 -7 -7 -7 -6 -6 -6 -7 -7 -7 -7 -7 -7 -7
-5 -5 -5 -5 -5 -5 -6 -5 -5 -5 -5 -5 -5 -5 -5 -5 -5 -5 -5 -5 -5 -5 -5 -5 -6 -6 -6 -7 -7 -7 -7 -7 -7 -7 -7 -7 -7 -7 -7 -7 -7 -7
-5 -5 -5 -5 -5 -5 -6 -6 -6 -6 -6 -6 -6 -6 -6 -5 -5 -6 -6 -6 -6 -6 -6 -6 -6 -6 -7 -7 -7 -7 -7 -7 -7 -7 -7 -7 -7 -7 -7 -7 -7 -7
-6 -6 -6 -6 -6 -6 -6 -6 -6 -6 -6 -6 -6 -6 -6 -6 -6 -6 -6 -6 -6 -6 -6 -6 -6 -7 -7 -7 -7 -8 -8 -7 -7 -7 -7 -7 -7 -7 -7 -7 -7 -7
-6 -6 -6 -6 -6 -6 -6 -6 -6 -6 -6 -6 -6 -6 -6 -6 -6 -6 -6 -6 -6 -6 -6 -6 -7 -7 -7 -7 -7 -7 -8 -8 -8 -8 -7 -7 -7 -7 -7 -7 -7 -7
-6 -6 -6 -6 -6 -6 -6 -6 -6 -6 -6 -6 -6 -6 -6 -6 -6 -6 -6 -6 -6 -6 -7 -7 -7 -7 -7 -7 -7 -7 -7 -7 -7 -7 -7 -7 -7 -7 -7 -7 -7 -7
-6 -6 -6 -6 -6 -6 -6 -6 -6 -6 -6 -6 -6 -6 -6 -6 -6 -6 -6 -6 -6 -7 -7 -7 -7 -7 -7 -7 -7 -7 -7 -7 -7 -7 -7 -8 -8 -8 -8 -8 -8 -8
Height
5926 5928 5929 5930 5931 5933 5934 5935 5936 5937 5938 5939 5939 5940 5941 5941 5942 5942 5942 5943 5944 5944 5944 5944 5944 5944 5944 5944 5944 5945 5945 5945 5946 5945 5945 5945 5945 5944 5944 5943 5942 5941
5926 5927 5928 5929 5931 5932 5934 5935 5936 5936 5937 5938 5939 5940 5940 5941 5941 5942 5942 5942 5943 5943 5943 5944 5944 5944 5944 5944 5944 5944 5945 5945 5945 5945 5945 5944 5944 5944 5944 5943 5942 5941
5925 5927 5928 5929 5930 5931 5933 5934 5935 5936 5937 5938 5939 5939 5940 5940 5941 5941 5942 5942 5942 5943 5943 5943 5943 5944 5944 5944 5944 5944 5944 5944 5945 5945 5944 5944 5944 5944 5944 5943 5942 5942
5924 5926 5927 5928 5929 5931 5932 5933 5934 5935 5936 5937 5938 5938 5939 5940 5940 5940 5941 5941 5941 5942 5942 5942 5942 5943 5943 5943 5943 5943 5943 5944 5944 5944 5944 5944 5944 5943 5943 5943 5942 5942
5923 5925 5926 5928 5929 5930 5931 5932 5933 5934 5935 5936 5936 5937 5938 5938 5939 5939 5940 5940 5940 5940 5941 5941 5941 5942 5942 5942 5942 5943 5943 5943 5943 5943 5943 5943 5943 5943 5943 5943 5942 5942
5922 5924 5925 5927 5928 5929 5930 5931 5932 5933 5934 5934 5935 5936 5936 5937 5937 5938 5938 5938 5939 5939 5939 5940 5940 5940 5940 5941 5941 5941 5942 5942 5942 5942 5942 5942 5942 5942 5942 5942 5942 5941
5921 5922 5924 5925 5926 5928 5929 5929 5930 5931 5932 5933 5933 5934 5934 5935 5936 5936 5936 5936 5937 5937 5938 5938 5938 5939 5939 5939 5940 5940 5940 5940 5941 5941 5941 5941 5941 5941 5942 5941 5941 5941
5919 5920 5922 5923 5925 5926 5927 5928 5929 5930 5930 5931 5932 5932 5933 5933 5934 5934 5934 5935 5935 5935 5936 5936 5937 5937 5937 5938 5938 5938 5939 5939 5939 5939 5939 5939 5940 5940 5940 5941 5940 5940
5917 5919 5920 5922 5923 5924 5925 5926 5927 5928 5929 5929 5930 5930 5931 5931 5932 5932 5932 5933 5933 5933 5934 5935 5935 5935 5935 5936 5936 5936 5937 5937 5938 5938 5938 5938 5938 5938 5939 5939 5940 5939
5916 5918 5919 5921 5922 5923 5923 5924 5925 5926 5927 5928 5928 5929 5929 5929 5930 5930 5930 5931 5931 5932 5932 5932 5933 5933 5933 5934 5934 5935 5935 5935 5936 5936 5936 5936 5937 5937 5937 5938 5938 5938
5915 5916 5918 5919 5920 5921 5921 5922 5923 5924 5925 5925 5926 5927 5927 5927 5928 5928 5928 5928 5929 5929 5930 5930 5931 5931 5931 5931 5932 5933 5933 5933 5933 5934 5935 5935 5935 5935 5936 5936 5936 5936
5913 5915 5916 5917 5918 5918 5919 5919 5920 5922 5922 5923 5924 5924 5925 5925 5926 5926 5926 5926 5926 5926 5927 5928 5928 5929 5929 5929 5930 5931 5931 5931 5931 5932 5932 5933 5933 5933 5934 5934 5934 5934
5912 5913 5913 5914 5915 5916 5916 5917 5918 5919 5920 5921 5921 5922 5922 5923 5924 5924 5924 5924 5924 5924 5925 5926 5926 5926 5927 5927 5928 5928 5929 5929 5928 5929 5930 5930 5931 5931 5931 5931 5932 5932
5909 5910 5911 5912 5912 5913 5914 5915 5915 5917 5918 5918 5919 5919 5920 5921 5922 5922 5921 5921 5922 5922 5922 5923 5923 5924 5924 5925 5925 5925 5926 5926 5926 5926 5927 5928 5928 5928 5928 5929 5929 5930
5906 5907 5908 5909 5910 5911 5912 5913 5913 5914 5915 5916 5917 5917 5917 5918 5919 5919 5919 5919 5919 5920 5920 5920 5921 5921 5922 5922 5922 5922 5923 5923 5924 5924 5924 5925 5926 5926 5926 5926 5927 5927
5904 5904 5906 5907 5908 5909 5909 5910 5910 5911 5912 5913 5914 5914 5915 5915 5916 5916 5917 5917 5917 5917 5917 5918 5918 5919 5919 5920 5920 5920 5920 5921 5921 5922 5922 5923 5924 5924 5924 5924 5925 5925
5901 5902 5903 5904 5905 5906 5907 5907 5908 5908 5909 5910 5911 5912 5912 5913 5913 5914 5914 5915 5915 5915 5915 5916 5916 5917 5917 5917 5917 5918 5918 5918 5919 5920 5920 5921 5922 5922 5922 5922 5922 5922
5899 5899 5900 5902 5903 5904 5904 5904 5905 5906 5907 5908 5909 5910 5910 5910 5911 5911 5912 5913 5913 5914 5914 5914 5914 5915 5915 5915 5915 5916 5916 5916 5917 5918 5918 5919 5919 5920 5920 5920 5920 5920
5897 5897 5898 5899 5900 5901 5901 5902 5902 5904 5905 5906 5907 5907 5907 5908 5909 5910 5910 5911 5911 5912 5912 5912 5912 5912 5913 5913 5914 5914 5914 5915 5916 5916 5917 5917 5917 5918 5918 5918 5919 5919
5895 5896 5896 5897 5898 5898 5899 5900 5900 5901 5902 5903 5904 5904 5905 5906 5907 5907 5908 5908 5909 5909 5910 5910 5910 5911 5911 5912 5912 5913 5913 5913 5914 5914 5915 5916 5916 5916 5916 5916 5916 5916
5893 5894 5894 5895 5895 5896 5897 5898 5898 5899 5899 5900 5901 5902 5903 5904 5904 5905 5905 5906 5906 5907 5908 5908 5909 5909 5910 5910 5911 5911 5911 5911 5912 5912 5913 5914 5914 5914 5914 5914 5914 5914
5890 5891 5892 5892 5893 5894 5894 5895 5896 5896 5897 5897 5899 5900 5900 5901 5902 5903 5903 5904 5904 5905 5906 5907 5907 5908 5908 5909 5909 5909 5909 5909 5910 5910 5911 5911 5912 5912 5912 5912 5912 5911
5887 5889 5889 5889 5890 5891 5892 5893 5893 5893 5894 5895 5896 5897 5898 5899 5899 5900 5901 5902 5902 5903 5904 5905 5906 5906 5907 5908 5908 5908 5907 5907 5907 5907 5907 5908 5909 5909 5909 5909 5909 5909
5884 5886 5886 5887 5888 5888 5889 5889 5890 5890 5891 5892 5893 5894 5895 5896 5897 5898 5899 5900 5901 5901 5902 5903 5904 5905 5906 5906 5907 5907 5906 5906 5905 5904 5904 5905 5906 5906 5906 5905 5906 5906
5881 5883 5884 5884 5885 5886 5886 5886 5887 5887 5888 5889 5890 5892 5893 5894 5895 5896 5897 5898 5899 5900 5901 5902 5902 5903 5904 5904 5905 5904 5904 5904 5903 5902 5902 5902 5902 5901 5901 5900 5901 5902
5878 5880 5881 5882 5883 5883 5883 5884 5884 5885 5886 5887 5888 5889 5890 5891 5893 5894 5895 5896 5897 5898 5898 5899 5900 5900 5901 5902 5902 5901 5901 5900 5899 5899 5900 5899 5897 5896 5896 5895 5896 5896
Wind_Speed
18 18 18 18 16 15 15 14 14 13 12 12 12 12 11 10 9 9 10 9 8 7 6 6 6 6 6 6 5 5 5 5 6 6 6 7 7 7 7 8 8 8
18 18 18 18 16 15 15 14 14 13 13 13 13 13 13 12 11 11 11 10 9 8 8 7 7 7 7 7 6 5 5 5 6 6 7 7 7 7 6 7 7 7
18 17 17 18 17 16 15 14 13 13 13 12 12 13 13 12 12 12 11 11 11 9 9 9 8 7 8 8 8 7 6 5 5 6 7 7 7 7 6 6 6 7
17 16 17 18 18 17 15 14 13 13 13 13 13 12 12 12 12 12 12 12 12 11 10 10 10 9 9 9 9 8 7 6 6 6 7 8 8 8 7 6 6 6
16 16 16 16 17 17 16 16 15 15 15 14 14 13 13 13 13 13 13 13 13 13 12 12 12 12 11 10 10 10 9 8 7 7 7 8 8 8 8 8 7 7
16 15 15 15 15 15 15 16 16 16 16 16 16 16 15 15 15 15 15 15 15 15 14 14 14 14 14 13 12 12 11 10 8 8 8 8 9 9 9 10 10 9
16 16 16 15 15 15 15 15 16 16 17 17 17 17 17 17 17 18 18 18 17 17 16 16 16 16 16 15 14 13 13 12 11 10 10 9 9 10 10 11 12 12
18 17 16 16 15 15 16 16 16 16 17 18 17 18 18 18 18 18 19 19 20 19 19 18 18 18 18 17 16 15 15 14 13 12 12 11 10 11 11 12 13 13
19 18 17 17 16 16 16 17 17 17 18 18 18 19 19 19 19 19 20 20 20 21 21 20 20 20 20 19 18 18 17 16 15 14 14 13 12 12 12 12 13 14
19 18 18 17 17 17 17 18 18 19 19 19 19 20 20 20 21 21 21 21 21 21 21 21 21 22 22 21 20 20 19 19 18 16 15 15 14 14 13 13 13 15
19 19 18 18 18 18 19 20 20 20 20 20 20 20 20 21 21 21 22 22 22 22 22 22 22 22 23 23 21 21 21 21 20 18 16 15 15 15 14 14 14 15
20 19 19 19 19 19 20 21 21 20 20 20 19 19 19 19 21 21 22 22 23 23 22 22 23 23 23 23 23 22 22 22 22 21 18 16 16 16 15 15 15 16
20 20 20 20 20 21 21 22 22 21 19 19 18 19 18 18 19 21 21 22 22 23 23 22 23 23 23 23 24 23 23 23 24 23 20 17 16 16 16 16 16 16
21 22 22 22 22 22 22 22 22 21 20 19 19 18 18 18 18 19 21 21 21 21 22 22 23 23 23 23 24 24 24 24 25 24 21 18 17 17 17 18 17 17
22 22 22 22 22 23 23 23 23 22 20 19 18 18 19 18 18 18 19 20 20 20 21 22 22 22 23 23 24 25 25 25 25 24 21 18 17 18 19 19 19 18
21 22 21 22 22 23 23 24 24 23 22 20 19 19 19 19 18 17 17 18 19 20 20 21 21 21 22 23 24 25 25 25 23 21 19 17 17 18 19 20 20 20
19 20 20 20 21 22 23 24 25 24 23 22 20 19 19 19 18 17 16 17 19 19 19 19 19 20 21 22 22 22 22 22 19 18 17 17 17 17 19 21 22 22
16 17 18 19 20 21 23 25 26 25 23 22 21 20 20 19 18 17 17 17 17 18 19 18 18 19 20 19 19 19 19 18 17 17 17 17 17 18 19 21 22 23
16 16 16 17 19 21 23 25 26 25 23 22 22 21 21 20 19 18 17 17 16 16 17 17 17 17 17 17 17 17 17 17 17 17 17 17 18 18 19 20 21 22
18 17 16 17 18 20 22 24 25 24 24 23 23 22 21 20 18 18 18 18 17 17 17 16 16 16 16 15 15 15 16 17 17 16 16 16 16 17 18 19 19 21
21 20 19 19 19 20 21 21 23 24 24 24 23 23 21 20 19 19 19 19 19 18 17 16 15 15 15 14 14 15 16 17 17 17 16 16 17 18 19 20 21 23
24 22 21 21 21 22 22 22 23 24 25 25 24 23 22 21 20 20 20 20 20 19 18 16 16 16 15 15 15 16 17 18 18 19 20 19 20 20 22 23 24 25
28 24 22 20 19 21 22 23 24 25 25 25 25 24 23 22 21 21 22 22 21 21 19 18 18 18 18 17 17 17 19 20 22 23 24 24 24 24 25 26 27 28
31 27 23 20 18 18 20 23 25 25 25 26 26 25 24 24 23 23 23 23 22 22 21 21 20 20 20 20 20 21 22 23 25 28 29 28 28 29 29 29 29 30
33 29 25 21 18 17 19 21 24 25 25 26 26 26 25 25 24 24 24 24 24 24 24 23 23 23 23 23 23 24 25 26 27 29 31 32 33 34 33 33 32 32
35 30 27 23 20 18 19 21 23 24 24 24 25 25 25 25 24 23 23 24 25 25 26 26 26 26 26 25 25 27 28 30 31 31 32 33 35 36 37 36 36 36
Wind_Direction
220 219 224 227 227 227 229 231 233 236 239 240 244 249 254 259 260 260 264 271 280 288 298 315 332 346 346 334 324 319 321 326 324 319 313 311 320 330 342 353 357 359
225 223 226 232 234 235 235 236 237 239 242 243 245 250 255 260 260 259 262 268 275 282 288 298 315 334 345 342 332 317 309 314 316 313 307 305 309 317 330 346 355 359
229 227 228 232 237 240 240 240 241 243 245 246 246 248 252 257 259 259 260 266 272 276 281 290 303 318 331 338 337 325 307 298 303 304 300 297 299 302 310 328 342 351
233 232 231 232 237 243 247 248 248 249 249 250 249 249 250 252 254 256 259 264 270 273 276 283 293 304 314 323 330 329 316 296 285 290 290 288 289 290 292 302 318 332
239 238 236 236 239 243 248 252 254 255 254 254 254 253 253 252 252 253 255 259 265 270 274 277 283 291 299 306 315 322 321 305 283 275 279 280 280 278 278 282 293 306
244 244 244 244 244 244 247 250 254 257 259 260 260 260 259 259 257 256 256 258 261 267 271 272 275 281 287 294 302 309 315 312 293 274 269 271 272 272 270 272 279 290
245 247 248 248 247 247 248 249 252 255 258 259 261 262 262 262 261 260 260 261 262 265 268 270 271 274 279 285 291 297 304 308 301 281 267 265 268 268 266 266 272 281
241 242 245 247 248 250 251 253 254 255 256 258 260 261 262 262 262 262 263 264 265 266 268 270 271 271 273 277 282 286 292 299 301 290 274 266 265 267 266 266 270 277
239 241 243 246 249 253 256 258 259 260 261 262 262 262 263 264 264 264 265 265 266 268 269 270 271 272 271 272 274 278 284 291 297 295 282 271 265 266 269 268 268 274
242 244 247 250 252 254 257 258 260 261 263 263 264 266 267 267 267 267 267 267 267 268 269 269 270 271 273 272 272 275 280 286 292 295 288 277 269 267 269 271 271 272
243 246 250 254 256 257 258 259 260 261 263 265 266 267 267 268 269 270 269 269 268 268 268 269 270 271 274 275 274 274 277 282 288 293 290 280 272 268 268 270 273 272
244 247 250 253 256 257 258 259 261 262 264 265 265 265 266 268 270 272 271 270 269 268 267 268 270 271 273 275 276 275 275 279 285 289 289 280 271 267 265 266 269 271
247 248 250 252 254 255 256 258 261 263 264 264 264 264 266 268 270 272 274 272 269 269 268 267 268 270 271 273 275 275 275 278 282 286 286 278 269 264 261 260 263 267
250 249 250 251 252 254 255 257 260 263 264 261 260 263 267 269 269 270 272 273 271 269 269 268 267 268 269 270 272 273 273 274 278 282 282 275 268 263 259 257 259 263
253 253 251 250 251 253 255 256 258 261 261 259 258 262 266 268 270 269 270 271 271 269 268 270 269 268 267 267 268 269 271 273 276 279 280 273 266 264 262 259 259 261
255 254 251 247 248 251 253 254 256 258 259 258 256 258 262 267 270 270 268 267 269 269 269 270 270 268 267 267 267 269 271 274 275 278 278 275 268 266 266 266 265 264
256 255 251 247 247 249 251 253 255 257 259 258 257 258 262 266 269 270 267 265 265 267 269 268 268 267 266 266 266 267 269 272 275 276 277 277 274 271 270 271 271 271
253 254 252 249 248 250 250 252 255 258 260 261 262 262 263 266 269 269 267 265 264 264 266 266 265 263 262 262 263 263 265 270 274 276 276 277 278 276 274 273 275 277
250 250 252 252 252 253 252 254 258 262 263 264 264 264 266 269 272 273 271 269 266 261 260 261 259 257 257 258 259 262 264 267 271 275 278 280 282 282 282 282 282 282
254 252 254 256 257 258 258 259 262 265 265 265 265 266 269 272 275 276 273 270 267 262 260 259 257 255 256 256 257 260 264 267 269 272 275 280 284 287 290 291 291 289
263 258 258 259 259 260 262 263 265 265 266 266 266 266 269 272 274 274 272 270 269 267 263 259 256 253 251 251 253 255 258 264 270 274 276 279 283 287 291 294 294 294
270 267 266 265 261 258 257 259 262 263 264 265 265 265 267 269 271 270 268 267 266 265 262 258 254 252 247 246 250 256 263 268 272 276 279 280 282 285 288 290 291 294
272 274 273 268 262 258 254 253 255 257 259 261 262 263 264 265 265 263 262 262 263 263 262 258 254 252 248 246 248 257 268 276 279 280 280 281 283 285 286 288 289 292
270 273 272 265 261 261 257 252 250 252 255 258 260 260 261 261 262 261 262 263 264 264 263 261 258 255 253 251 252 254 260 268 274 278 281 284 286 287 288 288 289 290
266 270 269 261 256 259 259 254 251 251 253 256 259 261 263 263 264 265 266 266 267 267 267 266 264 261 261 261 262 263 265 269 273 278 284 290 292 292 291 289 289 291
262 265 266 259 252 256 260 256 252 251 253 256 260 263 266 268 269 270 270 270 271 272 272 271 269 269 271 274 276 279 281 283 284 285 288 289 289 289 289 289 291 292